Weather History for Martinsville, VA

Change the Weather History Date:

Saturday, June 15, 2013

  Actual Average (KGSO) Record (KGSO)
Temperature  
Mean Temperature 68 °F 75 °F  
Max Temperature 84 °F 85 °F 97 °F (1926)
Min Temperature 52 °F 66 °F 42 °F (1933)
Degree Days  
Heating Degree Days 0 0  
Month to date heating degree days 5  
Since 1 June heating degree days 5  
Since 1 July heating degree days 3617  
Cooling Degree Days 3 10  
Month to date cooling degree days 129  
Year to date cooling degree days 288  
Since 1 June cooling degree days 129  
Growing Degree Days 18 (Base 50)    
Moisture  
Dew Point 58 °F    
Average Humidity 73    
Maximum Humidity 99    
Minimum Humidity 40    
Precipitation  
Precipitation 0.00 in 0.13 in 4.20 in (1969)
Month to date precipitation 1.89  
Year to date precipitation 18.59  
Sea Level Pressure  
Sea Level Pressure 30.11 in    
Wind  
Wind Speed 0 mph (SW)    
Max Wind Speed 5 mph    
Max Gust Speed -    
Visibility 8 miles    
Events      
T = Trace of Precipitation, MM = Missing Value Source: NWS Daily Summary

Daily Weather History Graph

Daily Weather History Graph

Search for Another Location

Airport:

Trip Planner

Search our weather history database for the weather conditions in past years. The results will help you decide how hot, cold, wet, or windy it might be!

Date:

Astronomy

Jun. 15, 2013 Rise Set
Actual Time 6:01 AM EDT 8:40 PM EDT
Civil Twilight 5:30 AM EDT 9:10 PM EDT
Nautical Twilight 4:52 AM EDT 9:49 PM EDT
Astronomical Twilight 4:09 AM EDT 10:31 PM EDT
Moon 12:24 PM EDT (6/15) 12:23 AM EDT (6/15)
Length of Visible Light 15h 40m
Length of Day
14h 39m
Waxing Crescent, 39% of the Moon is Illuminated
Jun 15
Waxing Crescent
Jun 16
First Quarter
Jun 23
Full
Jun 30
Last Quarter
Jul 8
New

Hourly Weather History & Observations

Time (EDT) Temp. Heat Index Dew Point Humidity Pressure Visibility Wind Dir Wind Speed Gust Speed Precip Events Conditions
12:15 AM 58.6 °F - 57.6 °F 96% 30.08 in 7.0 mi Calm Calm - N/A   Clear
12:35 AM 57.7 °F - 57.0 °F 97% 30.09 in 5.0 mi Calm Calm - N/A   Clear
12:55 AM 57.4 °F - 56.3 °F 96% 30.10 in 7.0 mi Calm Calm - N/A   Clear
1:15 AM 57.2 °F - 56.3 °F 97% 30.09 in 5.0 mi Calm Calm - N/A   Clear
1:35 AM 56.7 °F - 55.8 °F 97% 30.10 in 5.0 mi Calm Calm - N/A   Clear
1:55 AM 55.6 °F - 54.9 °F 97% 30.10 in 4.0 mi Calm Calm - N/A   Clear
2:15 AM 55.8 °F - 55.0 °F 97% 30.10 in 2.5 mi Calm Calm - N/A   Clear
2:35 AM 56.1 °F - 55.6 °F 98% 30.10 in 7.0 mi Calm Calm - N/A   Clear
2:55 AM 55.4 °F - 54.9 °F 98% 30.10 in 7.0 mi Calm Calm - N/A   Clear
3:15 AM 54.7 °F - 53.8 °F 97% 30.09 in 3.0 mi Calm Calm - N/A   Clear
3:35 AM 54.3 °F - 53.6 °F 97% 30.09 in 4.0 mi Calm Calm - N/A   Clear
3:55 AM 54.5 °F - 54.1 °F 99% 30.09 in 2.5 mi Calm Calm - N/A   Clear
4:15 AM 53.8 °F - 53.2 °F 98% 30.09 in 4.0 mi Calm Calm - N/A   Clear
4:35 AM 53.8 °F - 53.2 °F 98% 30.08 in 5.0 mi NW 3.5 mph - N/A   Clear
4:55 AM 53.8 °F - 53.1 °F 97% 30.09 in 7.0 mi Calm Calm - N/A   Clear
5:15 AM 53.4 °F - 52.9 °F 98% 30.09 in 5.0 mi Calm Calm - N/A   Clear
5:35 AM 52.9 °F - 52.5 °F 99% 30.11 in 5.0 mi Calm Calm - N/A   Clear
5:55 AM 52.2 °F - 51.8 °F 99% 30.12 in 5.0 mi Calm Calm - N/A   Clear
6:15 AM 52.2 °F - 51.6 °F 98% 30.13 in 3.0 mi Calm Calm - N/A   Clear
6:35 AM 52.2 °F - 52.0 °F 99% 30.14 in 3.0 mi Calm Calm - N/A   Clear
6:55 AM 54.0 °F - 53.6 °F 99% 30.15 in 7.0 mi Calm Calm - N/A   Clear
7:15 AM 55.6 °F - 54.7 °F 97% 30.15 in 10.0 mi Calm Calm - N/A   Clear
7:35 AM 57.2 °F - 55.9 °F 96% 30.15 in 10.0 mi Calm Calm - N/A   Clear
7:55 AM 60.3 °F - 58.1 °F 93% 30.16 in 10.0 mi Calm Calm - N/A   Clear
8:15 AM 62.6 °F - 59.2 °F 89% 30.15 in 10.0 mi Calm Calm - N/A   Clear
8:35 AM 65.3 °F - 60.6 °F 85% 30.17 in 10.0 mi Calm Calm - N/A   Clear
8:55 AM 68.2 °F - 60.8 °F 77% 30.17 in 10.0 mi Calm Calm - N/A   Clear
9:15 AM 70.7 °F - 59.5 °F 68% 30.17 in 10.0 mi Calm Calm - N/A   Clear
9:35 AM 73.0 °F - 59.7 °F 63% 30.18 in 10.0 mi Calm Calm - N/A   Clear
9:55 AM 74.8 °F - 58.5 °F 57% 30.18 in 10.0 mi Calm Calm - N/A   Clear
10:15 AM 75.7 °F - 59.4 °F 57% 30.17 in 10.0 mi Calm Calm - N/A   Clear
10:35 AM 76.6 °F - 57.9 °F 52% 30.16 in 10.0 mi Calm Calm - N/A   Clear
10:55 AM 77.5 °F - 56.7 °F 48% 30.16 in 10.0 mi SSW 4.6 mph - N/A   Clear
11:15 AM 78.3 °F - 57.2 °F 48% 30.15 in 10.0 mi Calm Calm - N/A   Clear
11:35 AM 78.6 °F - 56.1 °F 46% 30.15 in 10.0 mi Calm Calm - N/A   Clear
11:55 AM 80.1 °F 80.2 °F 55.8 °F 43% 30.15 in 10.0 mi West 3.5 mph - N/A   Scattered Clouds
12:15 PM 79.3 °F - 56.5 °F 45% 30.15 in 10.0 mi SW 3.5 mph - N/A   Scattered Clouds
12:35 PM 81.0 °F 80.9 °F 56.5 °F 43% 30.14 in 10.0 mi WSW 3.5 mph - N/A   Scattered Clouds
12:55 PM 80.8 °F 81.0 °F 57.4 °F 45% 30.14 in 10.0 mi SSE 3.5 mph - N/A   Mostly Cloudy
1:15 PM 80.1 °F 80.7 °F 58.8 °F 48% 30.14 in 10.0 mi Calm Calm - N/A   Overcast
1:35 PM 82.6 °F 82.2 °F 57.2 °F 42% 30.13 in 10.0 mi SSW 3.5 mph - N/A   Mostly Cloudy
1:55 PM 79.0 °F - 58.6 °F 50% 30.13 in 10.0 mi SSW 3.5 mph - N/A   Mostly Cloudy
2:15 PM 80.1 °F 80.6 °F 57.9 °F 47% 30.13 in 10.0 mi Calm Calm - N/A   Mostly Cloudy
2:35 PM 80.8 °F 81.2 °F 58.8 °F 47% 30.11 in 10.0 mi Calm Calm - N/A   Mostly Cloudy
2:55 PM 79.9 °F - 60.4 °F 51% 30.11 in 10.0 mi Calm Calm - N/A   Mostly Cloudy
3:15 PM 82.0 °F 81.8 °F 57.7 °F 43% 30.10 in 10.0 mi Calm Calm - N/A   Scattered Clouds
3:35 PM 81.1 °F 81.4 °F 58.5 °F 46% 30.11 in 10.0 mi Calm Calm - N/A   Mostly Cloudy
3:55 PM 83.7 °F 83.0 °F 57.0 °F 40% 30.10 in 10.0 mi Calm Calm - N/A   Scattered Clouds
4:15 PM 83.7 °F 83.0 °F 56.7 °F 40% 30.10 in 10.0 mi Calm Calm - N/A   Mostly Cloudy
4:35 PM 84.4 °F 83.7 °F 57.4 °F 40% 30.09 in 10.0 mi Calm Calm - N/A   Mostly Cloudy
4:55 PM 82.6 °F 82.8 °F 59.9 °F 46% 30.09 in 10.0 mi Calm Calm - N/A   Overcast
5:15 PM 81.7 °F 82.3 °F 60.6 °F 49% 30.09 in 10.0 mi Calm Calm - N/A   Mostly Cloudy
5:35 PM 84.4 °F 84.0 °F 58.8 °F 42% 30.09 in 10.0 mi South 4.6 mph - N/A   Mostly Cloudy
5:55 PM 83.7 °F 83.4 °F 58.8 °F 43% 30.08 in 10.0 mi Calm Calm - N/A   Scattered Clouds
6:15 PM 83.3 °F 83.2 °F 59.0 °F 44% 30.08 in 10.0 mi WSW 3.5 mph - N/A   Clear
6:35 PM 82.6 °F 82.5 °F 58.5 °F 44% 30.07 in 10.0 mi SW 3.5 mph - N/A   Clear
6:55 PM 81.9 °F 82.2 °F 59.5 °F 47% 30.08 in 10.0 mi SSW 3.5 mph - N/A   Clear
7:15 PM 81.9 °F 82.5 °F 60.8 °F 49% 30.08 in 10.0 mi Calm Calm - N/A   Clear
7:35 PM 80.1 °F 81.2 °F 61.9 °F 54% 30.08 in 10.0 mi Calm Calm - N/A   Clear
7:55 PM 77.0 °F - 64.4 °F 65% 30.09 in 10.0 mi Calm Calm - N/A   Clear
8:15 PM 73.9 °F - 64.2 °F 72% 30.09 in 10.0 mi Calm Calm - N/A   Clear
8:35 PM 72.0 °F - 64.4 °F 77% 30.08 in 10.0 mi Calm Calm - N/A   Clear
8:55 PM 70.2 °F - 63.5 °F 79% 30.08 in 10.0 mi Calm Calm - N/A   Scattered Clouds
9:15 PM 68.0 °F - 63.7 °F 86% 30.08 in 10.0 mi Calm Calm - N/A   Clear
9:35 PM 66.4 °F - 63.3 °F 90% 30.09 in 10.0 mi Calm Calm - N/A   Clear
9:55 PM 66.2 °F - 63.0 °F 89% 30.09 in 10.0 mi Calm Calm - N/A   Clear
10:15 PM 64.8 °F - 62.6 °F 93% 30.10 in 10.0 mi Calm Calm - N/A   Clear
10:35 PM 63.9 °F - 62.1 °F 94% 30.10 in 10.0 mi Calm Calm - N/A   Clear
10:55 PM 64.4 °F - 62.6 °F 94% 30.11 in 10.0 mi Calm Calm - N/A   Clear
11:15 PM 63.3 °F - 61.5 °F 94% 30.11 in 10.0 mi Calm Calm - N/A   Clear
11:35 PM 62.6 °F - 61.3 °F 96% 30.11 in 10.0 mi Calm Calm - N/A   Clear
11:55 PM 62.6 °F - 61.5 °F 96% 30.12 in 7.0 mi Calm Calm - N/A   Clear